Location: De Greiden
(52.9496°N, 5.9137°E)
Time: 22:54:20
(UTC+00:00)

H-2A R/B - Pass Details

Date: 24 January 2021
Orbit: 577 x 655 km, 98.5° (Epoch: 01 March)

Event Time Altitude Azimuth Distance (km) Brightness Sun altitude
Rises 17:54:43 0° 11° (N) 2,976 5.3 -16.0°
Reaches altitude 10° 17:57:01 10° 5° (N) 2,052 4.6 -16.3°
Maximum altitude 18:01:16 45° 294° (WNW) 868 3.2 -17.0°
Drops below altitude 10° 18:05:25 10° 222° (SW) 1,994 5.4 -17.6°
Sets 18:07:38 0° 216° (SW) 2,883 6.2 -17.9°
